Location: Jerusalem
(31.7670°N, 35.2330°E)
Time: 04:10:54
(UTC+03:00)

ISS - Visible Passes

Search period start: 27 May 2018 00:00
Search period end: 06 June 2018 00:00
Orbit: 402 x 407 km, 51.6° (Epoch: 27 May)

Date Brightness Start Highest point End Pass type
(mag) Time Alt. Az. Time Alt. Az. Time Alt. Az.
02 Jun -0.5 22:37:10 10° N 22:37:33 11° N 22:37:33 11° N visible
04 Jun -1.0 22:28:06 10° NNW 22:29:14 18° N 22:29:14 18° N visible
05 Jun -1.5 21:36:24 10° N 21:38:35 16° NE 21:38:48 16° NE visible
